[Iaude] MPEC V121: 2023 UF14 [a=2.74,e=0.57,i=40.7,H=18.8]
    mpec at marsden.cfa.harvard.edu 
    mpec at marsden.cfa.harvard.edu
       
    Wed Nov  8 09:26:12 EST 2023
    
    
  
M.P.E.C. 2023-V121                             Issued 2023 November 8, 14:24 UT
     The Minor Planet Electronic Circulars contain information on unusual
         minor planets, routine data on comets and natural satellites,
         and occasional editorial announcements.  They are published
    on behalf of Division F of the International Astronomical Union by the
          Minor Planet Center, Smithsonian Astrophysical Observatory,
                          Cambridge, MA 02138, U.S.A.
			  
             Prepared using the Tamkin Foundation Computer Network
                              MPC at CFA.HARVARD.EDU
            URL https://www.minorplanetcenter.net/    ISSN 1523-6714
                                   2023 UF14                                    
Observations:
     K23U14F* C2023 10 31.61341011 08 37.469+51 20 16.50         20.85iXEV121F51
     K23U14F  C2023 10 31.61984311 08 38.400+51 20 02.12         20.97iXEV121F51
     K23U14F  C2023 10 31.62627811 08 39.309+51 19 48.43         21.06iXEV121F51
     K23U14F  C2023 11 01.63699111 11 09.408+50 42 10.84         21.22GVEV121F51
     K23U14F  C2023 11 01.63780211 11 09.529+50 42 08.95         21.20GVEV121F51
     K23U14F  C2023 11 03.62482711 15 52.490+49 26 59.64         21.46GVEV121F51
     K23U14F  C2023 11 03.62564011 15 52.605+49 26 57.85         20.98GVEV121F51
     K23U14F KC2023 11 08.52366711 26 26.423+46 14 56.51         20.53GVEV121I52
     K23U14F KC2023 11 08.52630511 26 26.761+46 14 50.60         20.82GVEV121I52
     K23U14F KC2023 11 08.52893611 26 27.049+46 14 44.41         21.20GVEV121I52
Observer details:
F51 Pan-STARRS 1, Haleakala.  Observers J. Bulger, T. Lowe, P. Minguez, A.
    Schultz, I. Smith.  Measurers K. Chambers, T. de Boer, J. Fairlamb, H.
    Gao, M. Huber, C.-C. Lin, E. Magnier, Y. Ramanjooloo, R. Wainscoat, R.
    Weryk.  1.8-m Ritchey-Chretien + CCD.
I52 Steward Observatory, Mt. Lemmon Station.  Observer H. Groeller.  Measurers
    E. C. Beshore, D. Fay, J. B. Fazekas, D. C. Fuls, A. R. Gibbs, A. D.
    Grauer, H. Groeller, J. K. Hogan, R. A. Kowalski, S. M. Larson, G. J.
    Leonard, D. Rankin, R. L. Seaman, F. C. Shelly, K. W. Wierzchos.  1.0-m
    prime focus + CCD.
Orbital elements:
2023 UF14                                                Earth MOID = 0.2007 AU
Epoch 2023 Sept. 13.0 TT = JDT 2460200.5                MPC                     
M 340.61220              (2000.0)            P               Q                  
n   0.21747441     Peri.  162.16295     -0.41886487     -0.75391638             
a   2.7386127      Node   309.02530     +0.73337008     +0.04780873             
e   0.5731036      Incl.   40.65434     +0.53546292     -0.65522852             
P   4.53           H   18.86          G   0.15           U   9                  
Residuals in seconds of arc
231031 F51  0.3+  0.1+    231101 F51  0.1-  0.0     231108 I52  0.2+  0.1+
231031 F51  0.1+  0.2-    231103 F51  0.0   0.0     231108 I52  0.1-  0.2+
231031 F51  0.3-  0.1+    231103 F51  0.1+  0.0
231101 F51  0.1-  0.1+    231108 I52  0.1-  0.3-
Ephemeris:
2023 UF14                a,e,i = 2.74, 0.57, 41                  q = 1.1691
Date    TT    R. A. (2000) Decl.     Delta      r    Elong.  Phase     V
2023 10 09    09 47 26.1 +63 31 17   1.1887  1.3836    77.9    44.9    21.7
...
2023 10 24    10 47 12.9 +55 50 56   1.0813  1.3008    77.5    48.3    21.4
...
2023 11 01    11 09 34.5 +51 05 57   1.0233  1.2630    77.6    50.1    21.3
...
2023 11 07    11 23 17.7 +47 15 45   0.9792  1.2382    77.9    51.5    21.2
2023 11 08    11 25 22.0 +46 35 58   0.9718  1.2344    77.9    51.7    21.2
2023 11 09    11 27 23.0 +45 55 46   0.9643  1.2306    78.0    52.0    21.1
...
2023 11 15    11 38 23.0 +41 45 15   0.9194  1.2104    78.6    53.3    21.0
...
2023 11 23    11 50 29.2 +35 43 14   0.8592  1.1893    79.8    54.8    20.9
...
2023 12 08    12 06 50.5 +22 33 43   0.7498  1.1697    83.6    56.8    20.6
A. U. Tomatic                (C) Copyright 2023 MPC           M.P.E.C. 2023-V121
    
    
More information about the Iaude
mailing list